Regional Weather Roundup
Issued by NWS

Home | Current Version | Previous Version | Graphics & Text | Print | Product List | Glossary On
Versions: 1 2 3 4 5 6 7 8 9 10 11 12 13 14 15 16 17 18 19 20 21 22 23 24 25 26 27 28 29 30 31 32 33 34 35 36 37 38 39 40 41 42 43 44 45 46 47 48 49 50
000
ASUS43 KMKX 272221
RWRWI

WISCONSIN REGIONAL WEATHER ROUNDUP
NATIONAL WEATHER SERVICE MILWAUKEE/SULLIVAN WI
500 PM CDT MON APR 27 2015

NOTE: "FAIR" INDICATES FEW OR NO CLOUDS BELOW 12,000 FEET WITH NO
SIGNIFICANT WEATHER AND/OR OBSTRUCTIONS TO VISIBILITY.

WIZ001-002-006>008-014>016-023>028-272300-
NORTHWEST WISCONSIN

CITY           SKY/WX    TMP DP  RH WIND       PRES   REMARKS
SUPERIOR ARPT  SUNNY     68  30  24 E3        30.13F
ASHLAND        SUNNY     62  37  39 N9        30.17F
HAYWARD        SUNNY     66  23  19 N9        30.14F
SIREN          SUNNY     68  23  18 NW5       30.14F
CUMBERLAND     SUNNY     64  25  22 N8        30.14S
RICE LAKE      SUNNY     67  27  22 N12       30.15S
CHETEK         SUNNY     67  31  26 N5        30.13S
LADYSMITH      SUNNY     67  30  25 N10       30.14F
EAU CLAIRE     SUNNY     69  28  21 N10       30.12F
MENOMONIE      SUNNY     68  25  19 W9        30.13S
NEW RICHMOND   SUNNY     68  21  17 NW12      30.15F
OSCEOLA        SUNNY     67  27  21 NE8       30.17F
$$

WIZ003>005-009-010-017-018-272300-
NORTH CENTRAL WISCONSIN

CITY           SKY/WX    TMP DP  RH WIND       PRES   REMARKS
MANITOWISH WTR SUNNY     59  28  31 N9        30.15S
ARBOR VITAE    SUNNY     62  27  26 N15       30.14S
WOODRUFF       SUNNY     62  27  26 N15       30.14S
RHINELANDER    SUNNY     62  24  23 NW12G21   30.13R
EAGLE RIVER    SUNNY     60  23  24 N8G18     30.13S
LAND O LAKES   SUNNY     58  25  28 N13       30.15S
PHILLIPS       SUNNY     61  30  30 N9G18     30.14S
TOMAHAWK       SUNNY     63  28  27 NW8       30.13S
MEDFORD        SUNNY     64  31  28 N10       30.11F
MERRILL        SUNNY     65  31  28 N14       30.10S
$$

WIZ029-030-035-036-043>047-272300-
CENTRAL WISCONSIN

CITY           SKY/WX    TMP DP  RH WIND       PRES   REMARKS
WAUSAU         SUNNY     66  28  24 N9        30.08S
MOSINEE        SUNNY     64  27  24 N10G17    30.10F
MARSHFIELD     SUNNY     68  29  23 N12       30.10F
STEVENS POINT  SUNNY     65  29  26 N13       30.09S
WAUPACA        SUNNY     70  24  18 NW8G17    30.06F
WAUTOMA        SUNNY     68  28  22 VRB7      30.08S
WISC RAPIDS    SUNNY     68  27  21 VRB6      30.10F
CAMP DOUGLAS   SUNNY     68  30  24 N13G18    30.09F
$$

WIZ011>013-019>022-031-037>040-048>050-272300-
NORTHEAST WISCONSIN

CITY           SKY/WX    TMP DP  RH WIND       PRES   REMARKS
ANTIGO         SUNNY     62  29  28 N12G17    30.10S
SHAWANO        SUNNY     66  33  29 E3        30.08S
OCONTO         SUNNY     55  34  46 E7        30.11S
STURGEON BAY   SUNNY     48  32  53 SE10      30.14R
GREEN BAY      SUNNY     61  35  37 NE7       30.10S
MANITOWOC      SUNNY     49  36  61 SE10      30.12S
APPLETON       MOSUNNY   63  28  27 VRB6      30.08F
CLINTONVILLE   SUNNY     66  32  28 E7        30.06F
OSHKOSH        SUNNY     62  33  33 E8        30.08F
$$

WIZ032>034-041-042-053>061-272300-
SOUTHWEST WISCONSIN

CITY           SKY/WX    TMP DP  RH WIND       PRES   REMARKS
LA CROSSE      SUNNY     70  33  25 N10G22    30.12F
SPARTA         SUNNY     68  28  22 W13G20    30.11F
VIROQUA        SUNNY     65  31  28 N14       30.12F
BOSCOBEL       SUNNY     68  32  26 VRB7      30.11F
PRAIRIE DU CHI SUNNY     66  27  23 N13G18    30.11F
PLATTEVILLE    SUNNY     65  33  30 N12       30.10F
$$

WIZ056-057-062-063-064-067-068-272300-
SOUTH CENTRAL WISCONSIN

CITY           SKY/WX    TMP DP  RH WIND       PRES   REMARKS
REEDSBURG      SUNNY     65  33  30 NW12      30.09S
BARABOO/DELLS  SUNNY     65  29  25 NW12G18   30.09S
LONE ROCK      SUNNY     67  30  25 NW13G20   30.09F
MINERAL POINT  SUNNY     66  27  22 N13       30.10F
MADISON        MOSUNNY   67  30  25 N9        30.08F
MIDDLETON      SUNNY     67  25  20 N10G18    30.09S
WATERTOWN      SUNNY     63  34  34 NE13      30.09S
MONROE         SUNNY     63  32  31 N13G21    30.09S
JANESVILLE     MOSUNNY   64  27  24 NE14G20   30.09S
$$

WIZ051-052-058>065-066-070>072-272300-
SOUTHEAST WISCONSIN

CITY           SKY/WX    TMP DP  RH WIND       PRES   REMARKS
MILWAUKEE      MOSUNNY   45  32  60 N9        30.15S
WAUKESHA       MOSUNNY   52  36  54 E10       30.13S
MILWAUKEE/TIMM SUNNY     50  32  50 NE7       30.14S
RACINE         MOSUNNY   49  34  56 N12       30.15R
BURLINGTON     SUNNY     54  34  47 E10       30.12S
KENOSHA        SUNNY     52  35  52 NE13      30.13S
FOND DU LAC    SUNNY     62  31  31 NE9       30.09F
SHEBOYGAN      MOSUNNY   50  34  54 E13       30.12F
WEST BEND      MOSUNNY   52  34  50 E8        30.11S
JUNEAU         SUNNY     61  34  35 NE6       30.10S
$$

LSZ147-162-272300-
LAKE SUPERIOR

STATION/POSITION TIME  TEMP    WIND        PRES    WAVE
                       AIR SEA DIR/SP/G            HT/PER
                 (UTC) (F)     (DEG/KT/KT) (MB)    (FT/S)
W MID LAKE BUOY  2150   38 35  180/  4/  4 1023.7F   0
DEVILS ISLAND    2200   52     140/  6/  9 1022.2F
PORT WING        2140   48      40/  7/  8 1021.0F
SAXON HARBOR     2100   48        CALM     1022.4
$$

LMZ867-665-643>646-272300-
LAKE MICHIGAN

STATION/POSITION TIME  TEMP    WIND        PRES    WAVE
                       AIR SEA DIR/SP/G            HT/PER
                 (UTC) (F)     (DEG/KT/KT) (MB)    (FT/S)
CHAMBERS ISLAND  2100   48      70/ 10/ 13 1019.6F
NORTHPORT PIER   2100   44     130/  4/  5 1019.6F
KEWAUNEE LAKESHO 2100   44     100/  3/  5 1019.3F
SHEBOYGAN LAKESH 2200   42        CALM     1020.9F
PORT WASHINGTON  2100   46      40/  9/ 11 1021.0
MILWAUKEE LAKESH 2200   43      40/  6/  8   N/A
KENOSHA   LAKESH 2200   43      20/ 10/ 12 1020.3S
$$

TC  - TEMPERATURE IN CELSIUS
VSB - VISIBILITY IN STATUTE MILES
WCI - WIND CHILL INDEX
HX  - HEAT INDEX




USA.gov is the U.S. government's official web portal to all federal, state and local government web resources and services.